|
Cosmos 1833 Rocket - Orbit
|
Hines Observatory;
23:58:07
| Home | Info | Passes |
|
View from above orbital plane
|
View from above satellite
|
Ground track
|
The orbit data is extracted from the following two-line orbital elements,
1 17590U 87027B 13169.01591095 -.00000111 00000-0 -31719-4 0 4306
2 17590 071.0045 344.4149 0005478 345.7704 014.3264 14.16589977357332
| Epoch (UTC): | 18 June 2013 00:22:54 |
| Eccentricity: | 0.0005478 |
| inclination: | 71.0045° |
| perigee height: | 833 km |
| apogee height: | 841 km |
| right ascension of ascending node: | 344.4149° |
| argument of perigee: | 345.7704° |
| revolutions per day: | 14.16589977 |
| mean anomaly at epoch: | 14.3264° |
| orbit number at epoch: | 35733 |
The dashed part of the orbit path shows where the satellite is in the earth's shadow,
|
|